Hourly Weather Kozlowek

Today, 20 October, Tuesday

Time Temperature Precipitation Wind Pressure Humidity
00:00 +5°C° 0 mm 2 mps 752 mmHg 85%
01:00 +6°C° 0 mm 1 mps 752 mmHg 84%
02:00 +6°C° 0 mm 1 mps 752 mmHg 85%
03:00 +6°C° 0 mm 1 mps 752 mmHg 85%
04:00 +6°C° 0 mm 1 mps 752 mmHg 85%
05:00 +6°C° 0 mm 1 mps 752 mmHg 86%
06:00 +6°C° 0 mm 1 mps 753 mmHg 86%
07:00 +6°C° 0 mm 1 mps 753 mmHg 88%
08:00 +7°C° 0 mm 2 mps 753 mmHg 83%
09:00 +8°C° 0 mm 2 mps 753 mmHg 78%
10:00 +9°C° 0 mm 2 mps 753 mmHg 73%
11:00 +10°C° 0 mm 2 mps 752 mmHg 70%
12:00 +11°C° 0 mm 3 mps 752 mmHg 66%
13:00 +12°C° 0 mm 3 mps 752 mmHg 64%
14:00 +11°C° 0 mm 3 mps 751 mmHg 67%
15:00 +11°C° 0 mm 3 mps 751 mmHg 71%
16:00 +10°C° 0 mm 4 mps 750 mmHg 74%
17:00 +10°C° 0 mm 4 mps 750 mmHg 76%
18:00 +8°C° 0 mm 5 mps 750 mmHg 77%
19:00 +8°C° 0 mm 6 mps 750 mmHg 78%
20:00 +8°C° 0 mm 6 mps 749 mmHg 79%
21:00 +7°C° 0 mm 5 mps 749 mmHg 79%
22:00 +7°C° 0 mm 5 mps 748 mmHg 79%
23:00 +7°C° 0 mm 5 mps 748 mmHg 78%

Tomorrow, 21 October, Wednesday

Time Temperature Precipitation Wind Pressure Humidity
00:00 +7°C° 0 mm 4 mps 748 mmHg 77%
01:00 +7°C° 0 mm 4 mps 748 mmHg 76%
02:00 +6°C° 0 mm 4 mps 748 mmHg 77%
03:00 +6°C° 0 mm 4 mps 748 mmHg 77%
04:00 +6°C° 0 mm 4 mps 747 mmHg 78%
05:00 +6°C° 0 mm 4 mps 747 mmHg 76%
06:00 +6°C° 0 mm 4 mps 747 mmHg 74%
07:00 +7°C° 0 mm 5 mps 747 mmHg 73%
08:00 +8°C° 0 mm 4 mps 747 mmHg 70%
09:00 +10°C° 0 mm 4 mps 747 mmHg 67%
10:00 +11°C° 0 mm 4 mps 747 mmHg 64%
11:00 +11°C° 0 mm 4 mps 747 mmHg 63%
12:00 +12°C° 0 mm 4 mps 747 mmHg 61%
13:00 +13°C° 0 mm 3 mps 746 mmHg 60%
14:00 +13°C° 0 mm 3 mps 746 mmHg 63%
15:00 +12°C° 0 mm 3 mps 746 mmHg 66%
16:00 +13°C° 0 mm 2 mps 746 mmHg 69%
17:00 +12°C° 0 mm 2 mps 746 mmHg 71%
18:00 +11°C° 0 mm 3 mps 746 mmHg 72%
19:00 +10°C° 0 mm 3 mps 746 mmHg 73%
20:00 +10°C° 0 mm 3 mps 746 mmHg 75%
21:00 +10°C° 0 mm 4 mps 746 mmHg 77%
22:00 +8°C° 0 mm 4 mps 746 mmHg 78%
23:00 +8°C° 0 mm 4 mps 746 mmHg 80%

Day after tomorrow, 22 October, Thursday

Time Temperature Precipitation Wind Pressure Humidity
00:00 +8°C° 0 mm 4 mps 746 mmHg 82%
01:00 +8°C° 0 mm 3 mps 746 mmHg 84%
02:00 +7°C° 0 mm 4 mps 746 mmHg 83%
03:00 +7°C° 0 mm 4 mps 746 mmHg 83%
04:00 +7°C° 0 mm 4 mps 746 mmHg 83%
05:00 +7°C° 0 mm 4 mps 746 mmHg 83%
06:00 +8°C° 0 mm 5 mps 747 mmHg 84%
07:00 +8°C° 0 mm 5 mps 747 mmHg 84%
08:00 +9°C° 0 mm 5 mps 747 mmHg 79%
09:00 +12°C° 0 mm 5 mps 747 mmHg 74%
10:00 +14°C° 0 mm 5 mps 747 mmHg 69%
11:00 +14°C° 0 mm 4 mps 747 mmHg 67%
12:00 +15°C° 0 mm 4 mps 747 mmHg 65%
13:00 +17°C° 0 mm 4 mps 747 mmHg 64%
14:00 +16°C° 0 mm 3 mps 747 mmHg 68%
15:00 +16°C° 0 mm 3 mps 747 mmHg 72%
16:00 +14°C° 0 mm 3 mps 746 mmHg 76%
17:00 +13°C° 0 mm 3 mps 747 mmHg 78%
18:00 +13°C° 0 mm 3 mps 747 mmHg 79%
19:00 +12°C° 0 mm 3 mps 747 mmHg 81%
20:00 +12°C° 0 mm 3 mps 747 mmHg 80%
21:00 +12°C° 0 mm 3 mps 747 mmHg 80%
22:00 +12°C° 0 mm 3 mps 747 mmHg 80%
23:00 +12°C° 0 mm 3 mps 747 mmHg 80%

23 October, Friday

Time Temperature Precipitation Wind Pressure Humidity
00:00 +12°C° 0 mm 3 mps 747 mmHg 80%
01:00 +12°C° 0 mm 3 mps 746 mmHg 80%
02:00 +11°C° 0 mm 3 mps 746 mmHg 81%
03:00 +11°C° 0 mm 3 mps 746 mmHg 81%
04:00 +11°C° 0 mm 3 mps 746 mmHg 81%
05:00 +10°C° 0 mm 3 mps 746 mmHg 82%
06:00 +10°C° 0 mm 4 mps 745 mmHg 83%
07:00 +10°C° 0 mm 4 mps 745 mmHg 84%
08:00 +11°C° 0 mm 4 mps 745 mmHg 79%
09:00 +13°C° 0 mm 4 mps 745 mmHg 75%
10:00 +14°C° 0 mm 5 mps 745 mmHg 71%
11:00 +15°C° 0 mm 4 mps 745 mmHg 69%
12:00 +17°C° 0 mm 4 mps 744 mmHg 67%
13:00 +18°C° 0 mm 4 mps 744 mmHg 65%
14:00 +17°C° 0 mm 3 mps 744 mmHg 70%
15:00 +16°C° 0 mm 3 mps 744 mmHg 74%
16:00 +16°C° 0 mm 2 mps 744 mmHg 78%
17:00 +15°C° 0 mm 2 mps 744 mmHg 82%
18:00 +14°C° 0 mm 2 mps 744 mmHg 85%
19:00 +14°C° 0 mm 2 mps 744 mmHg 88%
20:00 +13°C° 0 mm 2 mps 744 mmHg 89%
21:00 +13°C° 0 mm 2 mps 744 mmHg 90%
22:00 +13°C° 0 mm 2 mps 744 mmHg 91%
23:00 +13°C° 0 mm 2 mps 744 mmHg 90%

24 October, Saturday

Time Temperature Precipitation Wind Pressure Humidity
00:00 +13°C° 0 mm 2 mps 744 mmHg 89%
01:00 +13°C° 0 mm 2 mps 743 mmHg 89%
02:00 +11°C° 0.4 mm 3 mps 743 mmHg 90%
03:00 +11°C° 0.4 mm 3 mps 743 mmHg 91%
04:00 +11°C° 0.4 mm 3 mps 742 mmHg 92%
05:00 +11°C° 0.2 mm 3 mps 742 mmHg 92%
06:00 +11°C° 0.2 mm 4 mps 742 mmHg 92%
07:00 +11°C° 0.2 mm 4 mps 741 mmHg 92%
08:00 +11°C° 0.6 mm 4 mps 741 mmHg 92%
09:00 +12°C° 0.6 mm 5 mps 741 mmHg 92%
10:00 +11°C° 0.6 mm 6 mps 741 mmHg 92%
11:00 +12°C° 0.4 mm 7 mps 742 mmHg 86%
12:00 +12°C° 0.4 mm 7 mps 742 mmHg 81%
13:00 +13°C° 0.4 mm 8 mps 742 mmHg 76%
14:00 +12°C° 0.1 mm 7 mps 743 mmHg 75%
15:00 +11°C° 0.1 mm 7 mps 743 mmHg 73%
16:00 +11°C° 0.1 mm 6 mps 744 mmHg 72%
17:00 +10°C° 0 mm 6 mps 744 mmHg 75%
18:00 +9°C° 0 mm 5 mps 745 mmHg 78%
19:00 +8°C° 0 mm 5 mps 746 mmHg 80%
20:00 +8°C° 0 mm 5 mps 746 mmHg 80%
21:00 +7°C° 0 mm 5 mps 747 mmHg 81%
22:00 +7°C° 0 mm 5 mps 747 mmHg 81%
23:00 +6°C° 0 mm 4 mps 748 mmHg 83%

25 October, Sunday

Time Temperature Precipitation Wind Pressure Humidity
00:00 +6°C° 0 mm 4 mps 748 mmHg 84%
01:00 +5°C° 0 mm 4 mps 748 mmHg 86%
02:00 +5°C° 0 mm 3 mps 748 mmHg 88%
03:00 +5°C° 0 mm 3 mps 749 mmHg 89%
04:00 +4°C° 0 mm 3 mps 749 mmHg 91%
05:00 +5°C° 0 mm 2 mps 749 mmHg 90%
06:00 +5°C° 0 mm 2 mps 749 mmHg 90%
07:00 +5°C° 0 mm 2 mps 749 mmHg 90%
08:00 +7°C° 0 mm 2 mps 749 mmHg 82%
09:00 +8°C° 0 mm 2 mps 749 mmHg 75%
10:00 +10°C° 0 mm 2 mps 750 mmHg 67%
11:00 +12°C° 0 mm 1 mps 749 mmHg 63%
12:00 +12°C° 0 mm 1 mps 749 mmHg 58%
13:00 +13°C° 0 mm 1 mps 749 mmHg 54%
14:00 +12°C° 0 mm 1 mps 748 mmHg 58%
15:00 +10°C° 0 mm 2 mps 748 mmHg 62%
16:00 +9°C° 0 mm 2 mps 748 mmHg 66%
17:00 +9°C° 0 mm 2 mps 748 mmHg 69%
18:00 +8°C° 0 mm 2 mps 748 mmHg 72%
19:00 +7°C° 0 mm 3 mps 748 mmHg 75%
20:00 +7°C° 0 mm 3 mps 748 mmHg 76%
21:00 +7°C° 0 mm 3 mps 748 mmHg 78%
22:00 +5°C° 0 mm 3 mps 748 mmHg 80%
23:00 +5°C° 0 mm 4 mps 747 mmHg 80%

26 October, Monday

Time Temperature Precipitation Wind Pressure Humidity
00:00 +5°C° 0 mm 4 mps 747 mmHg 81%
01:00 +5°C° 0 mm 4 mps 747 mmHg 81%
02:00 +5°C° 0 mm 4 mps 746 mmHg 81%
03:00 +5°C° 0 mm 4 mps 746 mmHg 81%
04:00 +3°C° 0 mm 5 mps 746 mmHg 81%
05:00 +3°C° 0 mm 5 mps 746 mmHg 81%
06:00 +3°C° 0 mm 5 mps 746 mmHg 81%
07:00 +3°C° 0 mm 5 mps 746 mmHg 81%
08:00 +6°C° 0 mm 5 mps 745 mmHg 76%
09:00 +7°C° 0 mm 5 mps 745 mmHg 72%
10:00 +9°C° 0 mm 5 mps 745 mmHg 68%
11:00 +10°C° 0 mm 5 mps 745 mmHg 66%
12:00 +12°C° 0 mm 5 mps 744 mmHg 65%
13:00 +13°C° 0 mm 5 mps 744 mmHg 63%
14:00 +13°C° 0 mm 4 mps 744 mmHg 67%
15:00 +12°C° 0 mm 4 mps 744 mmHg 71%
16:00 +11°C° 0 mm 4 mps 744 mmHg 75%
17:00 +11°C° 0 mm 4 mps 744 mmHg 75%
18:00 +10°C° 0 mm 4 mps 744 mmHg 75%
19:00 +9°C° 0 mm 5 mps 744 mmHg 75%
20:00 +10°C° 0 mm 4 mps 744 mmHg 74%
21:00 +8°C° 0 mm 4 mps 744 mmHg 73%
22:00 +9°C° 0 mm 3 mps 744 mmHg 73%
23:00 +9°C° 0 mm 3 mps 745 mmHg 72%
Show more